Weather History for Grand Island, NE

Change the Weather History Date:

Monday, June 17, 2013

  Actual Average Record
Temperature  
Mean Temperature 74 °F 72 °F  
Max Temperature 87 °F 84 °F 105 °F (1918)
Min Temperature 60 °F 60 °F 44 °F (1999)
Degree Days  
Heating Degree Days 0 0  
Month to date heating degree days 21 21  
Since 1 June heating degree days 21 21  
Since 1 July heating degree days 6133 6196  
Cooling Degree Days 9 7  
Month to date cooling degree days 97 93  
Year to date cooling degree days 192 158  
Since 1 June cooling degree days 97 93  
Growing Degree Days 24 (Base 50)    
Moisture  
Dew Point 58 °F    
Average Humidity 63    
Maximum Humidity 93    
Minimum Humidity 32    
Precipitation  
Precipitation 0.00 in 0.14 in 2.34 in (1954)
Month to date precipitation 0.29 2.56  
Year to date precipitation 13.66 12.51  
Snow  
Snow 0.00 in 0.00 in - ()
Month to date snowfall 0.0 0.0  
Since 1 June snowfall 0.0 0.0  
Since 1 July snowfall 35.2 29.0  
Snow Depth 0.00 in    
Sea Level Pressure  
Sea Level Pressure 30.00 in    
Wind  
Wind Speed 5 mph (North)    
Max Wind Speed 12 mph    
Max Gust Speed 18 mph    
Visibility 10 miles    
Events      
T = Trace of Precipitation, MM = Missing Value Source: NWS Daily Summary

Daily Weather History Graph

Daily Weather History Graph

Search for Another Location

Airport:

Trip Planner

Search our weather history database for the weather conditions in past years. The results will help you decide how hot, cold, wet, or windy it might be!

Date:

Astronomy

Jun. 17, 2013 Rise Set
Actual Time 6:00 AM CDT 9:07 PM CDT
Civil Twilight 5:27 AM CDT 9:41 PM CDT
Nautical Twilight 4:44 AM CDT 10:24 PM CDT
Astronomical Twilight 3:53 AM CDT 11:15 PM CDT
Moon 2:45 PM CDT (6/17) 1:39 AM CDT (6/17)
Length of Visible Light 16h 14m
Length of Day
15h 07m
First Quarter, 60% of the Moon is Illuminated
Jun 17
First Quarter
Jun 23
Full
Jun 29
Last Quarter
Jul 8
New
Jul 15
First Quarter

Hourly Weather History & Observations

Time (CDT) Temp. Heat Index Dew Point Humidity Pressure Visibility Wind Dir Wind Speed Gust Speed Precip Events Conditions
12:53 AM 66.9 °F - 57.9 °F 73% 29.95 in 10.0 mi SW 5.8 mph - N/A   Clear
1:53 AM 64.9 °F - 59.0 °F 81% 29.95 in 10.0 mi NNW 5.8 mph - N/A   Clear
2:53 AM 63.0 °F - 60.1 °F 90% 29.96 in 10.0 mi ENE 5.8 mph - N/A   Clear
3:53 AM 63.0 °F - 59.0 °F 87% 29.96 in 10.0 mi NNE 5.8 mph - N/A   Clear
4:53 AM 62.1 °F - 59.0 °F 90% 29.96 in 10.0 mi NE 6.9 mph - N/A   Clear
5:53 AM 60.1 °F - 57.9 °F 93% 30.02 in 10.0 mi NNW 3.5 mph - N/A   Clear
6:53 AM 62.1 °F - 57.9 °F 86% 30.04 in 10.0 mi NNW 5.8 mph - N/A   Clear
7:53 AM 66.9 °F - 57.9 °F 73% 30.04 in 10.0 mi North 4.6 mph - N/A   Clear
8:53 AM 71.1 °F - 57.9 °F 63% 30.06 in 10.0 mi North 8.1 mph - N/A   Clear
9:53 AM 73.0 °F - 57.9 °F 59% 30.06 in 10.0 mi NNE 10.4 mph - N/A   Clear
10:53 AM 75.9 °F - 59.0 °F 56% 30.06 in 10.0 mi Variable 4.6 mph - N/A   Clear
11:53 AM 80.1 °F 80.6 °F 57.9 °F 47% 30.05 in 10.0 mi Variable 3.5 mph - N/A   Clear
12:53 PM 82.0 °F 82.0 °F 57.9 °F 44% 30.04 in 10.0 mi WNW 4.6 mph - N/A   Clear
1:53 PM 84.0 °F 83.8 °F 59.0 °F 43% 30.03 in 10.0 mi NNE 8.1 mph - N/A   Scattered Clouds
2:53 PM 86.0 °F 84.5 °F 55.0 °F 35% 30.02 in 10.0 mi Variable 3.5 mph - N/A   Clear
3:53 PM 86.0 °F 84.7 °F 55.9 °F 36% 30.01 in 10.0 mi Variable 4.6 mph - N/A   Clear
4:53 PM 86.0 °F 84.5 °F 55.0 °F 35% 30.00 in 10.0 mi North 6.9 mph - N/A   Clear
5:53 PM 86.0 °F 84.5 °F 55.0 °F 35% 29.99 in 10.0 mi Calm Calm - N/A   Clear
6:53 PM 86.0 °F 84.2 °F 54.0 °F 33% 29.97 in 10.0 mi Variable 3.5 mph - N/A   Clear
7:53 PM 84.0 °F 82.9 °F 55.0 °F 37% 29.97 in 10.0 mi Calm Calm - N/A   Clear
8:53 PM 79.0 °F - 59.0 °F 50% 29.97 in 10.0 mi NNE 5.8 mph - N/A   Clear
9:53 PM 73.0 °F - 61.0 °F 66% 29.99 in 10.0 mi NNE 5.8 mph - N/A   Clear
10:53 PM 72.0 °F - 60.1 °F 66% 30.02 in 10.0 mi North 4.6 mph - N/A   Clear
11:53 PM 68.0 °F - 59.0 °F 73% 30.02 in 10.0 mi NE 4.6 mph - N/A   Clear